Location: Unspecified
(0.0000°N, 0.0000°E)
Time: 11:14:47
(UTC+00:00)

Tiangong 2 - Pass Details

Date: 22 March 2019
Orbit: 380 x 390 km, 42.8° (Epoch: 24 March)

Event Time Altitude Azimuth Distance (km) Brightness Sun altitude
Rises 19:28:58 0° 208° (SSW) 2,243 5.3 -20.5°
Reaches altitude 10° 19:31:13 10° 196° (SSW) 1,388 4.0 -21.1°
Enters shadow 19:31:45 13° 190° (S) 1,202 3.6 -21.2°
